Location: Brown Observing Site
(43.4354°N, 116.3366°W)
Time: 22:00:45
(UTC-06:00)

Envisat - Pass Details

Date: 25 March 2019
Orbit: 764 x 766 km, 98.2° (Epoch: 21 April)

Event Time Altitude Azimuth Distance (km) Brightness Sun altitude
Rises 20:46:21 0° 181° (S) 3,217 6.1 -8.5°
Reaches altitude 10° 20:48:43 10° 187° (S) 2,295 5.4 -8.9°
Maximum altitude 20:53:35 47° 261° (W) 1,007 4.2 -9.8°
Drops below altitude 10° 20:58:30 10° 335° (NNW) 2,311 6.0 -10.7°
Sets 21:00:54 0° 342° (NNW) 3,241 6.7 -11.1°
